Weather History for Fort Worth Spinks, TX

Change the Weather History Date:

Thursday, May 23, 2013

  Actual Average (KDFW) Record (KDFW)
Temperature  
Mean Temperature 74 °F 76 °F  
Max Temperature 85 °F 86 °F 96 °F (1996)
Min Temperature 64 °F 66 °F 50 °F (1917)
Degree Days  
Heating Degree Days 0 0  
Month to date heating degree days 6  
Since 1 July heating degree days 2282  
Cooling Degree Days 9 11  
Month to date cooling degree days 187  
Year to date cooling degree days 325  
Growing Degree Days 24 (Base 50)    
Moisture  
Dew Point 68 °F    
Average Humidity 81    
Maximum Humidity 94    
Minimum Humidity 62    
Precipitation  
Precipitation 0.00 in 0.15 in 3.91 in (1908)
Month to date precipitation 3.65  
Year to date precipitation 15.00  
Sea Level Pressure  
Sea Level Pressure 29.97 in    
Wind  
Wind Speed 7 mph (SE)    
Max Wind Speed 15 mph    
Max Gust Speed 23 mph    
Visibility 7 miles    
Events      
T = Trace of Precipitation, MM = Missing Value Source: NWS Daily Summary

Daily Weather History Graph

Daily Weather History Graph

Search for Another Location

Airport:

Trip Planner

Search our weather history database for the weather conditions in past years. The results will help you decide how hot, cold, wet, or windy it might be!

Date:

Astronomy

May. 23, 2013 Rise Set
Actual Time 6:25 AM CDT 8:26 PM CDT
Civil Twilight 5:58 AM CDT 8:54 PM CDT
Nautical Twilight 5:24 AM CDT 9:27 PM CDT
Astronomical Twilight 4:49 AM CDT 10:03 PM CDT
Moon 7:04 PM CDT (5/23) 5:06 AM CDT (5/23)
Length of Visible Light 14h 55m
Length of Day
14h 00m
Waxing Gibbous, 97% of the Moon is Illuminated
May 23
Waxing Gibbous
May 24
Full
May 31
Last Quarter
Jun 8
New
Jun 16
First Quarter

Hourly Weather History & Observations

Time (CDT) Temp. Heat Index Dew Point Humidity Pressure Visibility Wind Dir Wind Speed Gust Speed Precip Events Conditions
12:15 AM 67.1 °F - 61.5 °F 82% 29.94 in 10.0 mi SE 3.5 mph - N/A   Clear
12:35 AM 64.9 °F - 61.2 °F 88% 29.93 in 10.0 mi SE 4.6 mph - N/A   Clear
12:55 AM 67.1 °F - 62.6 °F 85% 29.93 in 10.0 mi SE 6.9 mph - N/A   Clear
1:15 AM 66.7 °F - 62.2 °F 85% 29.92 in 10.0 mi SSE 4.6 mph - N/A   Clear
1:35 AM 68.0 °F - 62.8 °F 83% 29.92 in 10.0 mi SE 8.1 mph - N/A   Clear
1:55 AM 68.9 °F - 62.8 °F 81% 29.91 in 10.0 mi SE 8.1 mph - N/A   Clear
2:15 AM 69.6 °F - 63.7 °F 81% 29.90 in 10.0 mi SSE 9.2 mph - N/A   Clear
2:35 AM 69.8 °F - 64.4 °F 83% 29.89 in 10.0 mi SSE 9.2 mph - N/A   Clear
2:55 AM 70.0 °F - 65.1 °F 85% 29.90 in 10.0 mi SSE 5.8 mph - N/A   Clear
3:15 AM 71.1 °F - 66.7 °F 86% 29.89 in 10.0 mi SSE 9.2 mph - N/A   Clear
3:35 AM 71.8 °F - 67.6 °F 87% 29.90 in 7.0 mi SSE 9.2 mph - N/A   Clear
3:55 AM 71.8 °F - 68.2 °F 88% 29.90 in 7.0 mi SSE 6.9 mph - N/A   Scattered Clouds
4:15 AM 71.6 °F - 68.4 °F 89% 29.90 in 7.0 mi South 8.1 mph - N/A   Scattered Clouds
4:35 AM 71.8 °F - 68.7 °F 90% 29.90 in 7.0 mi SSE 8.1 mph - N/A   Clear
4:55 AM 71.8 °F - 69.1 °F 91% 29.90 in 5.0 mi SSE 8.1 mph - N/A   Clear
5:15 AM 72.7 °F - 70.2 °F 92% 29.91 in 5.0 mi South 6.9 mph - N/A   Mostly Cloudy
5:35 AM 73.2 °F - 70.7 °F 92% 29.91 in 5.0 mi South 9.2 mph - N/A   Overcast
5:55 AM 73.6 °F - 70.9 °F 91% 29.92 in 5.0 mi South 9.2 mph - N/A   Overcast
6:15 AM 73.0 °F - 70.3 °F 91% 29.92 in 4.0 mi SSE 10.4 mph - N/A   Mostly Cloudy
6:55 AM 73.4 °F - 71.6 °F 94% 29.94 in 3.0 mi South 6.9 mph - N/A   Mostly Cloudy
7:46 AM 73.4 °F - 71.6 °F 94% 29.95 in 4.0 mi South 11.5 mph 20.7 mph N/A   Overcast
8:51 AM 75.2 °F - 71.6 °F 89% 29.95 in 4.0 mi SSE 15.0 mph 20.7 mph N/A   Mostly Cloudy
9:51 AM 78.8 °F - 69.8 °F 74% 29.99 in 5.0 mi SSE 5.8 mph - N/A   Haze
11:53 AM 78.8 °F - 69.8 °F 74% 30.08 in 6.0 mi East 6.9 mph - N/A   Haze
12:53 PM 80.6 °F 83.9 °F 69.8 °F 70% 30.06 in 5.0 mi South 8.1 mph - N/A   Haze
1:50 PM 84.2 °F 88.4 °F 69.8 °F 62% 30.04 in 5.0 mi ESE 10.4 mph - N/A   Haze
2:49 PM 82.4 °F 86.3 °F 69.8 °F 66% 30.03 in 5.0 mi SSE 10.4 mph 16.1 mph N/A   Haze
3:51 PM 84.2 °F 88.4 °F 69.8 °F 62% 29.99 in 5.0 mi ESE 10.4 mph - N/A   Haze
4:50 PM 84.2 °F 88.4 °F 69.8 °F 62% 29.97 in 5.0 mi SE 8.1 mph 16.1 mph N/A   Haze
5:50 PM 82.4 °F 86.3 °F 69.8 °F 66% 29.97 in 5.0 mi ESE 11.5 mph - N/A   Haze
6:50 PM 82.4 °F 86.3 °F 69.8 °F 66% 29.98 in 5.0 mi East 6.9 mph - N/A   Haze
7:55 PM 78.3 °F - 69.8 °F 75% 30.02 in 5.0 mi ENE 3.5 mph - N/A   Haze
8:15 PM 77.2 °F - 69.1 °F 76% 30.03 in 5.0 mi North 4.6 mph - N/A   Haze
8:35 PM 76.5 °F - 69.6 °F 79% 30.05 in 7.0 mi NNW 5.8 mph - N/A   Clear
8:55 PM 77.5 °F - 68.5 °F 74% 30.06 in 7.0 mi North 3.5 mph - N/A   Clear
9:15 PM 77.4 °F - 68.4 °F 74% 30.07 in 7.0 mi North 3.5 mph - N/A   Clear
9:35 PM 77.5 °F - 68.7 °F 74% 30.08 in 7.0 mi Calm Calm - N/A   Clear
9:55 PM 76.6 °F - 68.9 °F 77% 30.09 in 5.0 mi Calm Calm - N/A   Haze
10:15 PM 73.4 °F - 69.1 °F 86% 30.08 in 5.0 mi Calm Calm - N/A   Clear
10:35 PM 74.7 °F - 69.6 °F 84% 30.07 in 5.0 mi Calm Calm - N/A   Haze
10:55 PM 73.6 °F - 69.8 °F 88% 30.05 in 5.0 mi SSE 5.8 mph - N/A   Clear
11:15 PM 73.0 °F - 68.7 °F 86% 30.04 in 5.0 mi South 6.9 mph - N/A   Clear
11:35 PM 77.4 °F - 68.4 °F 74% 30.00 in 7.0 mi SSE 15.0 mph - N/A   Clear
11:55 PM 78.8 °F - 67.8 °F 69% 29.97 in 10.0 mi SSE 12.7 mph 23.0 mph N/A   Clear